Weather History for Lexington, KY

Change the Weather History Date:

Sunday, April 13, 2014

  Actual Average Record
Temperature  
Mean Temperature 74 °F 54 °F  
Max Temperature 83 °F 65 °F 84 °F (1941)
Min Temperature 64 °F 44 °F 23 °F (1939)
Degree Days  
Heating Degree Days 0 11  
Month to date heating degree days 86 167  
Since 1 July heating degree days 4645 4343  
Cooling Degree Days 9 1  
Month to date cooling degree days 11 4  
Year to date cooling degree days 11 6  
Growing Degree Days 23 (Base 50)    
Moisture  
Dew Point 49 °F    
Average Humidity 44    
Maximum Humidity 63    
Minimum Humidity 24    
Precipitation  
Precipitation 0.00 in 0.11 in 2.39 in (1923)
Month to date precipitation 1.63 1.46  
Year to date precipitation 11.56 11.93  
Snow  
Snow 0.00 in 0.00 in 0.30 in (1950)
Month to date snowfall 0.0 0.2  
Since 1 July snowfall 26.8 12.9  
Snow Depth 0.00 in    
Sea Level Pressure  
Sea Level Pressure 29.91 in    
Wind  
Wind Speed 16 mph (SSW)    
Max Wind Speed 30 mph    
Max Gust Speed 39 mph    
Visibility 10 miles    
Events      
T = Trace of Precipitation, MM = Missing Value Source: NWS Daily Summary

Daily Weather History Graph

Daily Weather History Graph

Search for Another Location

Airport:

Trip Planner

Search our weather history database for the weather conditions in past years. The results will help you decide how hot, cold, wet, or windy it might be!

Date:

Astronomy

Apr. 13, 2014 Rise Set
Actual Time 7:05 AM EDT 8:12 PM EDT
Civil Twilight 6:38 AM EDT 8:39 PM EDT
Nautical Twilight 6:06 AM EDT 9:12 PM EDT
Astronomical Twilight 5:33 AM EDT 9:45 PM EDT
Moon 6:50 PM EDT (4/13) 6:02 AM EDT (4/13)
Length of Visible Light 14h 01m
Length of Day
13h 06m
Waxing Gibbous, 97% of the Moon is Illuminated
Apr 13
Waxing Gibbous
Apr 15
Full
Apr 22
Last Quarter
Apr 29
New
May 6
First Quarter

Hourly Weather History & Observations

Time (EDT) Temp. Dew Point Humidity Pressure Visibility Wind Dir Wind Speed Gust Speed Precip Events Conditions
12:54 AM 66.9 °F 50.0 °F 54% 29.94 in 10.0 mi South 12.7 mph - N/A   Clear
1:54 AM 66.9 °F 50.0 °F 54% 29.92 in 10.0 mi South 15.0 mph - N/A   Clear
2:54 AM 66.0 °F 50.0 °F 56% 29.93 in 10.0 mi South 11.5 mph - N/A   Clear
3:54 AM 64.0 °F 50.0 °F 60% 29.94 in 10.0 mi SSW 12.7 mph - N/A   Clear
4:54 AM 64.9 °F 51.1 °F 61% 29.94 in 10.0 mi SSW 13.8 mph - N/A   Clear
5:54 AM 66.0 °F 51.1 °F 59% 29.94 in 10.0 mi SSW 13.8 mph - N/A   Clear
6:54 AM 66.0 °F 52.0 °F 60% 29.96 in 10.0 mi SSW 11.5 mph - N/A   Clear
7:54 AM 64.0 °F 52.0 °F 65% 30.01 in 10.0 mi South 6.9 mph - N/A   Clear
8:54 AM 66.9 °F 53.1 °F 61% 30.02 in 10.0 mi South 9.2 mph - N/A   Clear
9:54 AM 71.1 °F 54.0 °F 55% 30.02 in 10.0 mi SSW 13.8 mph - N/A   Clear
10:54 AM 73.0 °F 53.1 °F 49% 30.00 in 10.0 mi South 23.0 mph 26.5 mph N/A   Clear
11:54 AM 77.0 °F 52.0 °F 42% 29.97 in 10.0 mi SSW 25.3 mph 33.4 mph N/A   Clear
12:54 PM 78.1 °F 48.0 °F 35% 29.95 in 10.0 mi SSW 24.2 mph 38.0 mph N/A   Clear
1:54 PM 79.0 °F 48.9 °F 35% 29.93 in 10.0 mi South 20.7 mph 33.4 mph N/A   Clear
2:54 PM 81.0 °F 46.9 °F 30% 29.91 in 10.0 mi South 20.7 mph 25.3 mph N/A   Clear
3:54 PM 82.9 °F 45.0 °F 26% 29.88 in 10.0 mi SSW 23.0 mph 29.9 mph N/A   Clear
4:54 PM 82.9 °F 42.1 °F 24% 29.86 in 10.0 mi SSW 17.3 mph 29.9 mph N/A   Clear
5:54 PM 80.1 °F 44.1 °F 28% 29.86 in 10.0 mi SSW 15.0 mph 24.2 mph N/A   Clear
6:54 PM 79.0 °F 45.0 °F 30% 29.84 in 10.0 mi SSW 10.4 mph - N/A   Clear
7:54 PM 75.0 °F 46.9 °F 37% 29.83 in 10.0 mi SSW 10.4 mph - N/A   Clear
8:54 PM 73.9 °F 48.0 °F 40% 29.82 in 10.0 mi South 11.5 mph - N/A   Clear
9:54 PM 73.0 °F 51.1 °F 46% 29.81 in 10.0 mi South 17.3 mph - N/A   Clear
10:54 PM 73.0 °F 51.1 °F 46% 29.79 in 10.0 mi South 17.3 mph 25.3 mph N/A   Clear
11:54 PM 73.9 °F 51.1 °F 45% 29.78 in 10.0 mi South 19.6 mph - N/A   Clear